Minangkabau Airport

Jump to: basic info | weather | frequencies | runways | comments

Related pages: nearby airports | nearby navaids | notams | map

Basic information (top)

Codes: PDG WIPT
Location: lon -0.786917, lat 100.280998, elev 18 ft / 5 m msl
Status: medium_airport
Scheduled airline service: yes
Links: Wikipedia Mobile

Weather (top)

Current conditions (rec'd 2014/10/25 10:30Z):

WIPT 251030Z 31004KT 280V350 1200 R33/M0050VP1500D TSRA FEW016CB OVC017 26/25 Q1010

Airport forecast (rec'd 2014/10/24 06:00Z):

TAF WIPT 240500Z 2406/2506 23006KT 9999 FEW020 
      TEMPO 2410/2412 11004KT 8000 SCT020 
      TEMPO 2414/2416 24007KT 4000 -RA BKN020

Frequencies (top)

Verify before use: may be inaccurate or out of date.

APP: 124 MHz (PADANG APP)
ATIS: 127.25 MHz (ATIS)
TWR: 118.3 MHz (MINANG TWR)

Runways (top)

15/33: 9,020 x 148 ft (2,749 x 45 m) — paved — lighted

Latest comments (top)

No comments yet for Minangkabau Airport

More... (top)

See also NOTAMs and nearby airports and navaids, or visit the Minangkabau Airport page at the main OurAirports website..